ROMMA est une association bénévole à but non lucratif. Votre soutien est indispensable : ADHERER à ROMMA ou FAIRE un DON

Le Versoud - (38, Isère)

Vallée du Grésivaudan (220 m)   Longitude: 05° 51' 44" E   Latitude: 45° 13' 06" N Station partenaire n°6
 

Détail journalier du     <<     >>

Température Precipitation Humidité Pression Vent Dir Rafale Dir. rafale Ensol.
Heure (°C) (mm) (%) (hPa) (km/h) (km/h) (min)
01:00 18.7065100800---0
02:00 17.7070100800---0
03:00 17.3072100800---0
04:00 16.4074100800---0
05:00 15.4077100800---0
06:00 14.7080100800---0
07:00 14.3083100800---0
08:00 18.7061100800---55
09:00 18.8060100700---45
10:00 20.3056100700---45
11:00 23.6047100500---60
12:00 26.0037100502O60
13:00 26.70361004010O35
14:00 29.3028100306SSO25
15:00 31.402710011ONO10O50
16:00 31.9024100010OSO45O50
17:00 30.9026100014OSO47OSO45
18:00 30.802699912OSO47O25
19:00 30.1026100012OSO42O60
20:00 28.802810019SO40SO60
21:00 27.202810027SSO37OSO35
22:00 25.703110045SSO34SSE0
23:00 23.904010063SSE24SSE0
minuit 20.305210084S27S0

Graphique du 05-06-2019

 

Serveur OMMA